Independence, KS

11:38 AM CST on January 19, 2018 (GMT -0600)
Independence Municipal

Weather History for KIDP - November, 2012

Change the Weather History Date:

Sunday, November 11, 2012

  Actual Average (KCFV) Record (KCFV)
Temperature  
Mean Temperature 50 °F -  
Max Temperature 69 °F 56 °F 78 °F (2015)
Min Temperature 28 °F 37 °F 21 °F (1997)
Degree Days  
Heating Degree Days 16    
Moisture  
Dew Point 38 °F    
Average Humidity 83    
Maximum Humidity 100    
Minimum Humidity 60    
Precipitation  
Precipitation 0.00 in - - ()
Sea Level Pressure  
Sea Level Pressure 29.97 in    
Wind  
Wind Speed 16 mph (NW)    
Max Wind Speed 29 mph    
Max Gust Speed 34 mph    
Visibility 9 miles    
Events Rain , Thunderstorm    
Averages and records for this station are not official NWS values.
T = Trace of Precipitation, MM = Missing Value Source: NWS Daily Summary

Daily Weather History Graph

Daily Weather History Graph

Search for Another Location

Airport or City:

Trip Planner

Search our weather history database for the weather conditions in past years. The results will help you decide how hot, cold, wet, or windy it might be!

Date:

Astronomy

Nov. 11, 2012 Rise Set
Actual Time 6:58 AM CST 5:15 PM CST
Civil Twilight 6:30 AM CST 5:43 PM CST
Nautical Twilight 5:59 AM CST 6:14 PM CST
Astronomical Twilight 5:28 AM CST 6:45 PM CST
Moon 4:16 AM CST (11/11) 3:37 PM CST (11/11)
Length of Visible Light 11h 12m
Length of Day
10h 17m
Waning Crescent, 7% of the Moon is Illuminated
Nov 11
Waning Crescent
Nov 13
New
Nov 20
First Quarter
Nov 28
Full
Dec 6
Last Quarter

Hourly Weather History & Observations

Time (CST) Temp. Windchill Dew Point Humidity Pressure Visibility Wind Dir Wind Speed Gust Speed Precip Events Conditions
12:15 AM 68.0 °F - 55.4 °F 64% 29.72 in 10.0 mi South 19.6 mph 29.9 mph N/A   Clear
12:35 AM 68.0 °F - 55.4 °F 64% 29.73 in 10.0 mi South 18.4 mph 25.3 mph N/A   Mostly Cloudy
12:55 AM 68.0 °F - 55.4 °F 64% 29.71 in 10.0 mi South 21.9 mph 31.1 mph N/A   Overcast
1:15 AM 69.8 °F - 55.4 °F 60% 29.72 in 10.0 mi South 18.4 mph 27.6 mph N/A   Overcast
1:35 AM 69.8 °F - 55.4 °F 60% 29.74 in 10.0 mi SSW 19.6 mph 29.9 mph N/A   Overcast
1:55 AM 69.8 °F - 55.4 °F 60% 29.75 in 10.0 mi SSW 18.4 mph 25.3 mph N/A   Overcast
2:15 AM 68.0 °F - 57.2 °F 68% 29.72 in 10.0 mi South 19.6 mph 27.6 mph N/A   Light Drizzle
2:35 AM 68.0 °F - 55.4 °F 64% 29.71 in 10.0 mi South 24.2 mph 31.1 mph N/A   Overcast
2:55 AM 68.0 °F - 57.2 °F 68% 29.69 in 10.0 mi South 27.6 mph 33.4 mph N/A   Overcast
3:15 AM 68.0 °F - 57.2 °F 68% 29.69 in 10.0 mi South 25.3 mph 32.2 mph N/A   Overcast
3:35 AM 68.0 °F - 59.0 °F 73% 29.67 in 10.0 mi South 21.9 mph 32.2 mph N/A   Overcast
3:55 AM 68.0 °F - 57.2 °F 68% 29.67 in 10.0 mi South 25.3 mph 32.2 mph N/A   Overcast
4:15 AM 68.0 °F - 57.2 °F 68% 29.67 in 10.0 mi South 27.6 mph 33.4 mph N/A   Overcast
4:35 AM 68.0 °F - 59.0 °F 73% 29.67 in 10.0 mi South 24.2 mph 31.1 mph N/A   Overcast
4:55 AM 68.0 °F - 57.2 °F 68% 29.67 in 10.0 mi South 28.8 mph 34.5 mph N/A   Overcast
5:35 AM 50.0 °F - 50.0 °F 100% 29.74 in 4.0 mi NNW 18.4 mph 26.5 mph N/A Rain , Thunderstorm Heavy Thunderstorms and Rain
5:55 AM 50.0 °F - 48.2 °F 94% 29.76 in 4.0 mi NW 16.1 mph - N/A Rain Heavy Rain
6:15 AM 50.0 °F - 48.2 °F 94% 29.75 in 5.0 mi NNW 15.0 mph - N/A Rain Light Rain
6:35 AM 50.0 °F - 46.4 °F 87% 29.78 in 4.0 mi NNW 9.2 mph - N/A Rain , Thunderstorm Rain
6:55 AM 50.0 °F - 48.2 °F 94% 29.80 in 5.0 mi NW 11.5 mph - N/A Rain Rain
7:35 AM 46.4 °F 42.4 °F 44.6 °F 93% 29.83 in 7.0 mi NW 8.1 mph - N/A Rain Rain
8:15 AM 44.6 °F 36.1 °F 44.6 °F 100% 29.87 in 7.0 mi NW 21.9 mph 27.6 mph N/A Rain Rain
8:35 AM 42.8 °F 35.8 °F 41.0 °F 93% 29.89 in 10.0 mi NW 13.8 mph 33.4 mph N/A Rain Rain
8:55 AM 42.8 °F 36.2 °F 41.0 °F 93% 29.86 in 7.0 mi NNW 12.7 mph - N/A Rain Rain
9:15 AM 41.0 °F 33.5 °F 39.2 °F 93% 29.88 in 4.0 mi NNW 13.8 mph 19.6 mph N/A Rain Rain
9:35 AM 39.2 °F 31.6 °F 37.4 °F 93% 29.90 in 5.0 mi NNW 12.7 mph - N/A Rain Rain
9:55 AM 39.2 °F 33.0 °F 37.4 °F 93% 29.90 in 7.0 mi North 9.2 mph - N/A Rain Rain
10:15 AM 39.2 °F 30.2 °F 37.4 °F 93% 29.91 in 4.0 mi North 17.3 mph 20.7 mph N/A Rain Rain
10:35 AM 39.2 °F 32.0 °F 37.4 °F 93% 29.93 in 7.0 mi NNW 11.5 mph - N/A Rain Heavy Rain
11:15 AM 37.4 °F 28.5 °F 35.6 °F 93% 29.95 in 10.0 mi NW 15.0 mph 20.7 mph N/A Rain Light Rain
11:35 AM 37.4 °F 27.2 °F 33.8 °F 87% 29.93 in 10.0 mi NW 19.6 mph 25.3 mph N/A   Overcast
12:15 PM 35.6 °F 26.6 °F 33.8 °F 93% 29.98 in 10.0 mi NNW 13.8 mph - N/A   Overcast
12:35 PM 35.6 °F 26.6 °F 33.8 °F 93% 29.97 in 10.0 mi NNW 13.8 mph 18.4 mph N/A   Overcast
12:55 PM 35.6 °F 26.6 °F 33.8 °F 93% 29.98 in 10.0 mi NW 13.8 mph 18.4 mph N/A   Overcast
1:15 PM 35.6 °F 26.6 °F 32.0 °F 87% 30.00 in 10.0 mi NW 13.8 mph 18.4 mph N/A   Overcast
1:35 PM 35.6 °F 25.5 °F 32.0 °F 87% 30.00 in 10.0 mi NW 17.3 mph - N/A   Overcast
1:55 PM 37.4 °F 28.9 °F 32.0 °F 81% 30.00 in 10.0 mi NNW 13.8 mph - N/A   Overcast
2:15 PM 37.4 °F 29.3 °F 32.0 °F 81% 29.99 in 10.0 mi NW 12.7 mph - N/A   Overcast
2:35 PM 37.4 °F 28.5 °F 32.0 °F 81% 30.01 in 10.0 mi NNW 15.0 mph 23.0 mph N/A   Overcast
2:55 PM 37.4 °F 27.8 °F 32.0 °F 81% 30.00 in 10.0 mi NNW 17.3 mph - N/A   Overcast
3:15 PM 35.6 °F 25.9 °F 32.0 °F 87% 30.01 in 10.0 mi NNW 16.1 mph 23.0 mph N/A   Overcast
3:35 PM 35.6 °F 26.2 °F 32.0 °F 87% 30.02 in 10.0 mi NNW 15.0 mph 19.6 mph N/A   Overcast
3:55 PM 35.6 °F 27.1 °F 32.0 °F 87% 30.05 in 10.0 mi NNW 12.7 mph - N/A   Overcast
4:15 PM 35.6 °F 26.6 °F 32.0 °F 87% 30.05 in 10.0 mi NNW 13.8 mph - N/A   Overcast
4:35 PM 35.6 °F 26.6 °F 30.2 °F 81% 30.08 in 10.0 mi NNW 13.8 mph - N/A   Overcast
4:55 PM 35.6 °F 27.1 °F 30.2 °F 81% 30.09 in 10.0 mi NNW 12.7 mph - N/A   Overcast
5:15 PM 35.6 °F 27.1 °F 30.2 °F 81% 30.11 in 10.0 mi NNW 12.7 mph - N/A   Mostly Cloudy
5:35 PM 35.6 °F 28.0 °F 28.4 °F 75% 30.13 in 10.0 mi NW 10.4 mph 18.4 mph N/A   Scattered Clouds
5:55 PM 33.8 °F 24.8 °F 28.4 °F 81% 30.13 in 10.0 mi NW 12.7 mph - N/A   Scattered Clouds
6:15 PM 33.8 °F 25.8 °F 28.4 °F 81% 30.15 in 10.0 mi NW 10.4 mph - N/A   Clear
6:35 PM 32.0 °F 25.6 °F 28.4 °F 87% 30.16 in 10.0 mi NW 6.9 mph - N/A   Clear
6:55 PM 32.0 °F 26.4 °F 28.4 °F 87% 30.17 in 10.0 mi NW 5.8 mph - N/A   Clear
7:15 PM 32.0 °F 27.5 °F 28.4 °F 87% 30.18 in 10.0 mi WNW 4.6 mph - N/A   Clear
7:35 PM 32.0 °F 28.7 °F 28.4 °F 87% 30.19 in 10.0 mi WNW 3.5 mph - N/A   Clear
7:55 PM 32.0 °F 28.7 °F 28.4 °F 87% 30.20 in 10.0 mi West 3.5 mph - N/A   Clear
8:15 PM 32.0 °F 27.5 °F 28.4 °F 87% 30.21 in 10.0 mi West 4.6 mph - N/A   Clear
8:35 PM 32.0 °F 27.5 °F 28.4 °F 87% 30.22 in 10.0 mi West 4.6 mph - N/A   Clear
8:55 PM 32.0 °F 24.8 °F 26.6 °F 80% 30.23 in 10.0 mi WNW 8.1 mph - N/A   Clear
9:15 PM 32.0 °F 25.6 °F 26.6 °F 80% 30.24 in 10.0 mi NW 6.9 mph - N/A   Clear
9:35 PM 30.2 °F 24.3 °F 26.6 °F 86% 30.26 in 10.0 mi NW 5.8 mph - N/A   Clear
9:55 PM 30.2 °F 25.4 °F 26.6 °F 86% 30.26 in 10.0 mi NW 4.6 mph - N/A   Clear
10:15 PM 30.2 °F 24.3 °F 26.6 °F 86% 30.27 in 10.0 mi NW 5.8 mph - N/A   Clear
10:35 PM 30.2 °F 23.4 °F 26.6 °F 86% 30.27 in 10.0 mi NW 6.9 mph - N/A   Clear
10:55 PM 30.2 °F 25.4 °F 24.8 °F 80% 30.28 in 10.0 mi NNW 4.6 mph - N/A   Clear
11:15 PM 30.2 °F - 26.6 °F 86% 30.28 in 10.0 mi Calm Calm - N/A   Clear
11:35 PM 30.2 °F 25.4 °F 24.8 °F 80% 30.29 in 10.0 mi NW 4.6 mph - N/A   Clear
11:55 PM 28.4 °F 23.3 °F 24.8 °F 86% 30.29 in 10.0 mi NW 4.6 mph - N/A   Clear